This is the latest recevied weather packets stored in our database for station/object N1ORT. If no packets are shown the sender has not sent any weather packets the latest 10 day(s).
| Time | Temp. | Humidity | Pressure | Rain* | Wind** | Luminosity | Snow |
|---|---|---|---|---|---|---|---|
| 1777896198 | 10.56° C | 55% | 1008.4 hPa | 0 mm | - | 294 W/m² | - |
| 1777895896 | 10.56° C | 56% | 1008.3 hPa | 0 mm | - | 228 W/m² | - |
| 1777895593 | 10° C | 57% | 1008.3 hPa | 0 mm | - | 125 W/m² | - |
| 1777895290 | 10° C | 59% | 1008.3 hPa | 0 mm | - | 185 W/m² | - |
| 1777894989 | 9.44° C | 59% | 1008.1 hPa | 0 mm | - | 141 W/m² | - |
| 1777894686 | 8.89° C | 61% | 1008.2 hPa | 0 mm | - | 101 W/m² | - |
| 1777894382 | 8.33° C | 64% | 1008.4 hPa | 0 mm | - | 85 W/m² | - |
| 1777894080 | 8.33° C | 65% | 1008.5 hPa | 0 mm | - | 85 W/m² | - |
| 1777893776 | 7.78° C | 66% | 1008.4 hPa | 0 mm | - | 73 W/m² | - |
| 1777893473 | 7.78° C | 65% | 1008.4 hPa | 0 mm | - | 70 W/m² | - |
| 1777893169 | 7.78° C | 67% | 1008.5 hPa | 0 mm | - | 80 W/m² | - |
| 1777892866 | 7.78° C | 67% | 1008.3 hPa | 0 mm | - | 62 W/m² | - |
| 1777892562 | 7.78° C | 68% | 1008.6 hPa | 0 mm | - | 70 W/m² | - |
| 1777892258 | 7.78° C | 66% | 1008.6 hPa | 0 mm | - | 68 W/m² | - |
| 1777891954 | 7.22° C | 70% | 1008.4 hPa | 0 mm | - | 64 W/m² | - |
| 1777891653 | 7.22° C | 68% | 1008.6 hPa | 0 mm | - | 38 W/m² | - |
| 1777891348 | 7.22° C | 70% | 1008.6 hPa | 0 mm | - | 38 W/m² | - |
| 1777891043 | 7.22° C | 68% | 1008.4 hPa | 0 mm | - | 37 W/m² | - |
| 1777890738 | 6.67° C | 70% | 1008.5 hPa | 0 mm | - | 28 W/m² | - |
| 1777890434 | 6.67° C | 69% | 1008.5 hPa | 0 mm | - | 34 W/m² | - |
| 1777890130 | 6.67° C | 69% | 1008.4 hPa | 0 mm | - | 31 W/m² | - |
| 1777889827 | 6.67° C | 69% | 1008.3 hPa | 0 mm | - | 26 W/m² | - |
| 1777889524 | 6.67° C | 68% | 1008.4 hPa | 0 mm | - | 24 W/m² | - |
| 1777889221 | 6.67° C | 68% | 1008.2 hPa | 0 mm | - | 19 W/m² | - |
| 1777888920 | 6.67° C | 68% | 1008.3 hPa | 0 mm | - | 14 W/m² | - |
* Rain latest hour (hover to see other rain measurements)
** Current wind speed in m/s (hover to see current wind gust speed)